Regional Weather Roundup
Issued by NWS

Home | Current Version | Previous Version | Text Only | Print | Product List | Glossary On
Versions: 1 2 3 4 5 6 7 8 9 10 11 12 13 14 15 16 17 18 19 20 21 22 23 24 25 26 27 28 29 30 31 32 33 34 35 36 37 38 39 40 41 42 43 44 45 46 47 48 49 50
000
ASUS43 KDMX 010007
RWRIA

WEATHER ROUNDUP FOR IOWA
NATIONAL WEATHER SERVICE DES MOINES IA
600 PM CST SAT JAN 31 2015

NOTE: "FAIR" INDICATES FEW OR NO CLOUDS BELOW 12,000 FEET WITH NO
SIGNIFICANT WEATHER AND/OR OBSTRUCTIONS TO VISIBILITY.

* - THESE STATIONS ARE NOT NWS STATIONS...THUS NOT UNDER NWS
QUALITY CONTROL.  THEY ALSO DO NOT REPORT WEATHER SUCH
AS PRECIPITATION OR FOG.

IAZ001>003-012>014-020>022-031>034-043>046-010100-
   NORTHWEST IOWA

CITY           SKY/WX    TMP DP  RH WIND       PRES   REMARKS
CARROLL *      LGT SNOW  32  32 100 E9        30.01F VSB 1   WCI  24
CHEROKEE *     LGT SNOW  28  28 100 NE8       30.02S WCI  20
DENISON *      LGT SNOW  32  32 100 E7        29.97F WCI  26
LE MARS *      LGT SNOW  28  28 100 E12G21    30.01S WCI  18
ORANGE CITY *  LGT SNOW  28  27  93 E10G16    30.00F WCI  19
SHELDON *      LGT SNOW  28  28 100 E23       30.01F WCI  14
SIOUX CITY     LGT SNOW  33  32  96 E7        29.99F VSB 3/4 WCI  27
6HR MIN TEMP:  33; 6HR MAX TEMP:  38; 6HR PCP:  0.13;

SPENCER        LGT SNOW  29  27  92 NE13      30.04S FOG     WCI  19
6HR MIN TEMP:  28; 6HR MAX TEMP:  29; 6HR PCP: TRACE;

STORM LAKE *   LGT SNOW  28  28 100 NE13      30.01F VSB 3/4 WCI  18
$$

IAZ055>058-069>071-079>083-090>094-010100-
   SOUTHWEST IOWA

CITY           SKY/WX    TMP DP  RH WIND       PRES   REMARKS
ATLANTIC *     LGT SNOW  34  34 100 CALM      29.98F
AUDUBON *      LGT SNOW  34  30  86 SE3       30.00F
CLARINDA *     LGT SNOW  34  34 100 SE9       30.00F WCI  26
COUNCIL BLFS * LGT SNOW  32  32 100 SE9       29.95F WCI  24
CRESTON *      LGT SNOW  32  32 100 SE13      30.00F WCI  22
HARLAN  *      LGT SNOW  32  32 100 SE6       30.01F VSB 1   WCI  26
LAMONI         LGT SNOW  32  32 100 SE7       30.03F VSB 3/4 WCI  26
6HR MIN TEMP:  32; 6HR MAX TEMP:  37; 6HR PCP:  0.37;

RED OAK *      LGT SNOW  34  34 100 SE8       29.98F WCI  27
SHENANDOAH *   LGT SNOW  34  34 100 SE13      29.98F WCI  25
$$

IAZ047>049-059>061-072>074-084-010100-
   CENTRAL IOWA

CITY           SKY/WX    TMP DP  RH WIND       PRES   REMARKS
AMES           LGT SNOW  32  31  96 E6        30.05F FOG     WCI  26
6HR MIN TEMP:  32; 6HR MAX TEMP:  38; 6HR PCP:  0.17;

ANKENY *       LGT SNOW  34  34 100 SE5       30.05F WCI  30
CHARITON *     LGT SNOW  34  32  93 SE8       30.05F WCI  27
DES MOINES     LGT SNOW  34  32  92 SE8       30.04F FOG     WCI  27
6HR MIN TEMP:  35; 6HR MAX TEMP:  40; 6HR PCP:  0.23;

GRINNELL*      RAIN      36  34  93 S3        30.07F
KNOXVILLE *    MIX PCPN  36  34  93 S7        30.05F WCI  30
MARSHALLTOWN   LGT SNOW  33  32  96 SE3       30.06F FOG
6HR MIN TEMP:  33; 6HR MAX TEMP:  37; 6HR PCP:  0.09;

PELLA *        DRIZZLE   36  35  97 SE6       30.08F WCI  31
PERRY *        LGT SNOW  34  34 100 E3        30.03F
$$

IAZ004>006-015-016-023>025-035-036-010100-
   NORTH CENTRAL IOWA

CITY           SKY/WX    TMP DP  RH WIND       PRES   REMARKS
ALGONA *       LGT SNOW  30  30 100 NE9G16    30.06S WCI  22
CLARION *      LGT SNOW  30  32 100 E13       30.05S WCI  20
ESTHERVILLE    LGT SNOW  27  26  96 NE16      30.05F VSB 3/4 WCI  15
6HR MIN TEMP:  26; 6HR MAX TEMP:  28; 6HR PCP:  0.02;

FORT DODGE *   CLOUDY    32  30  93 CALM      30.04F
MASON CITY     LGT SNOW  30  29  96 E12       30.08F FOG     WCI  20
6HR MIN TEMP:  30; 6HR MAX TEMP:  31; 6HR PCP:  0.01;

FOREST CITY *  LGT SNOW  32  30  93 NE7       30.07S WCI  26
IOWA FALLS *   LGT SNOW  34  32  93 CALM      30.06F
$$

IAZ007>011-017>019-026>030-037>042-050>054-066-010100-
   NORTHEAST IOWA

CITY           SKY/WX    TMP DP  RH WIND       PRES   REMARKS
CEDAR RAPIDS   LGT RAIN  36  36 100 S6        30.09F FOG     WCI  31
6HR MIN TEMP:  36; 6HR MAX TEMP:  39; 6HR PCP:  0.07;

CHARLES CITY * LGT SNOW  30  30 100 E10       30.09F WCI  21
CLINTON *      CLOUDY    32  30  93 S7        30.17S WCI  26
DECORAH *      MIX PCPN  30  25  80 NE7       30.11S WCI  23
DUBUQUE        LGT SNOW  32  27  81 NE5       30.12S WCI  27
6HR MIN TEMP:  32; 6HR MAX TEMP:  36; 6HR PCP: TRACE;

MONTICELLO *   CLOUDY    36  36 100 S3        30.11F
OELWEIN *      LGT SNOW  32  30  93 E12       30.10S WCI  23
WATERLOO       LGT SNOW  32  32 100 E7        30.08F FOG     WCI  26
6HR MIN TEMP:  32; 6HR MAX TEMP:  38; 6HR PCP:  0.07;

$$

IAZ064-065-067-068-078-010100-
   EAST CENTRAL IOWA

CITY           SKY/WX    TMP DP  RH WIND       PRES   REMARKS
DAVENPORT      LGT RAIN  33  31  92 S6        30.14F FOG     WCI  28
6HR MIN TEMP:  33; 6HR MAX TEMP:  36; 6HR PCP:  0.08;

IOWA CITY      LGT RAIN  35  35 100 SE5       30.13F FOG     WCI  31
6HR MIN TEMP:  35; 6HR MAX TEMP:  37; 6HR PCP:  0.08;

MT. PLEASANT * LGT RAIN  34  34 100 SE7       30.13S WCI  28
MUSCATINE *    CLOUDY    36  34  93 SE3       30.14F FOG
QUAD CITIES    LGT RAIN  34  33  96 S3        30.14F FOG
6HR MIN TEMP:  34; 6HR MAX TEMP:  37; 6HR PCP:  0.08;

$$

IAZ062-063-075>077-085>089-095>099-010100-
   SOUTHEAST IOWA

CITY           SKY/WX    TMP DP  RH WIND       PRES   REMARKS
BURLINGTON     MIX PCPN  35  34  96 S8        30.14S FOG     WCI  29
6HR MIN TEMP:  34; 6HR MAX TEMP:  36; 6HR PCP:  0.15;

FAIRFIELD *    CLOUDY    36  36 100 SE6       30.10F FOG     WCI  31
FORT MADISON * CLOUDY    34  34 100 SE3       30.14F FOG
KEOKUK *       CLOUDY    36  36 100 SE7       30.13F FOG     WCI  30
OSKALOOSA *    DRIZZLE   34  33  96 SE6       30.08F WCI  29
CENTERVILLE *  FLURRIES  34  34 100 SE10      30.08S WCI  26
OTTUMWA        LGT RAIN  36  36 100 SE6       30.08F FOG     WCI  31
6HR MIN TEMP:  35; 6HR MAX TEMP:  39; 6HR PCP:  0.18;

WASHINGTON *   MIX PCPN  36  36 100 SE6       30.11F WCI  31
$$

ABBREVIATIONS USED IN REMARKS
   TC - TEMPERATURES IN CELSIUS
  WCI - WIND CHILL INDEX
   HX - HEAT INDEX
  VSB - VISIBILITY
$$



USA.gov is the U.S. government's official web portal to all federal, state and local government web resources and services.